Location: Unspecified
(0.0000°N, 0.0000°E)
Time: 00:49:00
(UTC+00:00)

deb Explorer IX - Pass Details

Date: 15 December 2018
Orbit: 537 x 1116 km, 38.8° (Epoch: 17 April)

Event Time Altitude Azimuth Distance (km) Brightness Sun altitude
Exits shadow 05:04:50 - 251° (WSW) 3,200 ? -11.5°
Reaches altitude 10° 05:09:05 10° 218° (SW) 2,778 ? -10.5°
Maximum altitude 05:09:44 10° 212° (SSW) 2,784 ? -10.4°
Drops below altitude 10° 05:10:24 10° 207° (SSW) 2,811 ? -10.2°
Sets 05:16:51 0° 166° (SSE) 3,890 ? -8.8°
